This is the latest recevied weather packets stored in our database for station/object MKSRDG. If no packets are shown the sender has not sent any weather packets the latest 10 day(s).
| Time | Temp. | Humidity | Pressure | Rain* | Wind** | Luminosity | Snow |
|---|---|---|---|---|---|---|---|
| 1777395305 | 8.33° C | 85% | 1023.9 hPa | 0 mm | - | 185 W/m² | - |
| 1777394405 | 8.33° C | 86% | 1023.8 hPa | 0 mm | - | 186 W/m² | - |
| 1777393505 | 8.33° C | 86% | 1023.9 hPa | 0 mm | - | 248 W/m² | - |
| 1777392605 | 8.33° C | 88% | 1023.8 hPa | 0 mm | - | 262 W/m² | - |
| 1777391705 | 7.78° C | 88% | 1023.9 hPa | 0 mm | - | 192 W/m² | - |
| 1777390805 | 7.78° C | 87% | 1023.7 hPa | 0 mm | - | 193 W/m² | - |
| 1777389905 | 7.78° C | 89% | 1023.8 hPa | 0 mm | - | 181 W/m² | - |
| 1777389005 | 7.22° C | 91% | 1023.7 hPa | 0 mm | - | 120 W/m² | - |
| 1777388105 | 7.22° C | 91% | 1023.4 hPa | 0 mm | - | 91 W/m² | - |
| 1777387205 | 7.22° C | 90% | 1023.3 hPa | 0 mm | - | 77 W/m² | - |
| 1777386305 | 7.22° C | 91% | 1023 hPa | 0 mm | - | 72 W/m² | - |
| 1777385405 | 7.22° C | 91% | 1022.8 hPa | 0 mm | - | 56 W/m² | - |
| 1777384505 | 6.67° C | 93% | 1022.6 hPa | 0 mm | - | 35 W/m² | - |
| 1777383605 | 6.67° C | 93% | 1022.4 hPa | 0 mm | - | 21 W/m² | - |
| 1777382705 | 6.67° C | 92% | 1022.4 hPa | 0 mm | - | 11 W/m² | - |
| 1777381806 | 6.67° C | 91% | 1022.3 hPa | 0 mm | - | 0 W/m² | - |
| 1777380906 | 6.67° C | 91% | 1022.3 hPa | 0 mm | - | 0 W/m² | - |
| 1777380006 | 6.67° C | 91% | 1022.1 hPa | 0 mm | - | 0 W/m² | - |
| 1777379106 | 6.67° C | 91% | 1022 hPa | 0 mm | - | 0 W/m² | - |
| 1777378206 | 6.67° C | 91% | 1022 hPa | 0 mm | - | 0 W/m² | - |
| 1777377306 | 6.67° C | 91% | 1022 hPa | 0 mm | - | 0 W/m² | - |
| 1777376406 | 6.67° C | 92% | 1021.9 hPa | 0 mm | - | 0 W/m² | - |
| 1777375506 | 6.67° C | 91% | 1021.9 hPa | 0 mm | - | 0 W/m² | - |
| 1777374606 | 6.67° C | 91% | 1021.9 hPa | 0 mm | - | 0 W/m² | - |
| 1777373706 | 6.67° C | 91% | 1021.7 hPa | 0 mm | - | 0 W/m² | - |
* Rain latest hour (hover to see other rain measurements)
** Current wind speed in m/s (hover to see current wind gust speed)